Location: Martinez
(33.5170°N, 82.0760°W)
Time: 23:43:39
(UTC-04:00)

Hubble Space Telescope - Visible Passes

Search period start: 25 June 2017 00:00
Search period end: 05 July 2017 00:00
Orbit: 538 x 541 km, 28.5° (Epoch: 25 June)

Date Brightness Start Highest point End Pass type
(mag) Time Alt. Az. Time Alt. Az. Time Alt. Az.
27 Jun 3.2 05:27:56 10° SSE 05:28:37 10° SSE 05:29:18 10° SE visible
28 Jun 3.0 05:16:26 10° S 05:18:26 13° SSE 05:20:26 10° SE visible
29 Jun 2.7 05:06:39 13° S 05:08:15 16° SSE 05:10:52 10° ESE visible
30 Jun 2.4 04:56:59 18° S 04:58:05 20° SSE 05:01:06 10° ESE visible
01 Jul 2.1 04:47:19 22° S 04:47:55 23° SSE 04:51:13 10° ESE visible
02 Jul 1.9 04:37:39 27° SSE 04:37:46 27° SSE 04:41:16 10° ESE visible
03 Jul 1.8 04:28:00 30° SSE 04:28:00 30° SSE 04:31:17 10° ESE visible
04 Jul 1.9 04:18:23 30° SE 04:18:23 30° SE 04:21:15 10° ESE visible
